Wind_Speed
23 23 23 22 21 21 22 22 22 21 22 21 21 22 22 23 23 23 24 25 25 25 27 28 29 30 31 31 33 34 35 37 39 40 40 40 39 39 40 41 41 42 42 42
23 23 22 21 21 21 22 22 22 22 22 21 21 22 21 22 24 24 24 25 25 26 27 28 28 29 30 31 32 34 34 35 36 37 39 38 37 37 37 38 39 40 40 40
23 23 22 21 20 21 22 22 23 24 23 22 22 22 22 22 23 24 24 25 25 26 26 28 28 29 29 29 30 32 33 34 35 36 36 36 36 36 36 37 37 37 37 38
23 23 22 21 21 22 22 23 24 24 24 24 23 23 23 23 23 23 23 24 25 25 25 26 26 27 28 28 30 31 32 32 34 35 36 36 36 36 36 37 37 36 36 36
23 22 22 21 21 22 22 22 23 24 24 24 24 23 23 23 23 23 24 25 25 25 25 25 26 26 27 27 28 29 30 31 32 33 33 33 34 35 35 35 35 35 34 34
23 23 22 21 22 22 23 22 22 22 23 24 23 23 22 22 22 23 24 25 25 25 25 26 26 27 27 27 28 29 29 30 31 31 31 31 32 32 33 33 33 33 34 34
23 23 23 22 22 23 23 23 22 21 21 22 23 22 21 21 20 21 23 25 26 26 26 27 27 27 28 28 28 28 28 29 29 30 30 31 31 31 31 31 32 32 33 34
23 23 23 23 23 23 23 22 22 21 21 21 20 21 21 21 21 21 21 23 25 26 27 27 27 27 27 27 28 28 28 28 28 29 29 30 30 30 30 30 30 31 31 32
23 23 23 23 23 23 23 23 21 21 21 21 20 20 19 20 19 20 20 22 23 24 25 26 26 26 26 26 27 28 28 28 28 28 29 29 29 29 29 29 30 29 29 29
23 22 22 22 22 22 22 22 21 21 21 21 20 19 19 18 19 19 19 20 21 22 23 24 25 26 25 26 26 26 27 27 27 28 28 29 28 28 28 28 29 29 29 29
22 22 22 21 22 22 22 21 21 20 19 19 19 20 20 19 19 19 19 19 20 21 21 22 23 25 25 25 25 25 26 27 27 27 28 28 28 28 28 27 28 29 29 29
23 22 22 22 22 22 21 20 19 19 19 19 20 20 20 20 19 19 19 20 19 19 20 21 22 23 25 25 26 26 26 26 27 27 27 27 27 28 28 28 28 28 29 29
24 23 23 22 22 21 19 19 19 18 18 19 19 19 19 19 19 19 20 20 20 20 20 21 21 22 23 24 25 26 27 27 27 27 27 27 27 28 28 28 28 28 27 27
24 23 23 22 21 19 18 18 18 18 19 19 19 19 19 19 20 20 21 21 20 20 20 21 21 22 22 22 23 24 25 26 26 26 26 26 26 27 27 27 27 27 27 26
25 24 23 21 20 18 18 18 18 19 19 19 19 19 20 20 20 21 21 21 20 19 19 20 20 21 21 21 22 23 23 24 24 24 25 26 26 26 27 26 27 27 27 26
24 23 22 21 20 19 19 19 19 19 20 20 20 20 20 20 20 20 20 21 20 19 19 19 20 20 20 20 21 21 22 22 22 23 24 24 25 26 26 26 26 26 26 26
23 22 21 20 20 20 20 19 19 19 20 20 20 20 20 20 20 20 20 20 20 20 19 19 19 19 19 19 20 21 21 21 22 22 23 23 23 24 25 25 26 26 26 26
22 21 21 21 20 20 19 19 20 20 19 20 21 21 21 21 20 20 20 20 19 19 19 19 18 18 19 20 20 21 21 21 22 22 22 23 23 24 24 25 25 26 25 25
22 21 21 21 21 20 20 20 20 20 20 20 20 21 21 21 20 21 20 19 19 19 19 19 18 18 19 19 19 20 20 21 21 22 22 23 23 23 24 24 24 24 24 24
21 21 21 21 21 20 20 20 20 20 20 20 20 20 20 20 20 20 20 20 19 20 20 19 19 19 19 19 18 18 19 19 20 21 21 22 22 22 22 23 24 23 23 23
21 20 21 21 21 20 20 20 20 20 20 20 20 20 20 21 20 20 20 20 20 20 20 19 19 19 19 18 18 18 18 19 19 20 20 20 21 21 20 21 22 22 23 23
21 20 21 21 20 20 20 20 20 20 20 20 20 20 20 20 20 20 20 20 19 18 18 18 18 18 18 18 18 18 18 18 18 19 19 19 19 19 19 19 20 21 21 21
21 20 20 20 19 19 19 20 20 20 20 20 19 20 20 20 20 19 19 19 18 18 18 18 18 18 18 18 18 18 18 18 18 18 18 18 18 18 18 19 19 20 20 21
21 21 20 20 19 19 19 19 19 19 19 19 19 19 19 19 19 19 18 18 18 17 17 17 17 17 17 18 18 18 18 17 17 17 17 18 18 18 18 19 19 20 20 20
21 20 20 19 19 18 18 18 18 18 18 18 18 18 18 19 19 19 18 17 16 16 15 15 15 16 16 17 17 16 16 17 17 17 17 17 18 18 19 19 19 19 20 20
21 20 20 19 18 18 18 18 18 18 18 18 18 18 18 18 18 17 17 16 15 15 15 15 15 15 15 15 16 16 16 16 17 17 17 17 18 18 19 19 20 19 19 19
20 20 19 19 18 18 18 18 18 18 18 17 17 17 17 17 16 16 15 14 14 14 14 14 14 14 14 15 15 15 16 16 17 17 17 17 17 18 18 18 18 18 18 18
Wind_Direction
298 299 298 293 288 285 283 284 285 287 287 287 283 280 273 268 265 265 265 265 264 260 260 259 256 254 254 253 251 249 246 245 245 243 243 243 245 247 248 250 251 253 253 253
297 296 295 293 288 285 284 285 286 286 287 287 285 279 276 270 265 263 264 264 264 262 260 259 257 257 258 255 252 248 244 244 243 242 241 242 244 246 247 248 250 252 253 252
299 295 295 292 290 287 286 287 286 284 285 285 284 278 275 271 267 264 265 264 263 262 258 257 257 258 259 256 251 248 244 243 241 240 240 241 243 245 246 247 249 248 249 250
301 296 294 300 297 292 289 288 287 286 283 282 284 280 278 273 270 266 265 265 263 260 260 258 258 259 256 255 251 247 244 242 241 241 242 243 244 246 246 247 247 248 249 250
303 298 297 300 301 298 295 293 290 287 284 281 281 280 279 276 272 270 265 265 265 262 261 259 259 258 255 253 250 246 245 244 244 244 244 244 245 247 247 247 247 247 247 249
302 299 300 300 301 301 299 298 295 290 286 280 279 278 278 277 274 271 266 264 264 262 261 261 262 259 256 253 250 248 247 245 244 243 243 244 245 247 248 248 248 247 247 249
301 300 301 301 301 301 299 300 298 295 291 286 281 281 279 277 275 270 267 266 264 262 260 262 263 261 257 253 251 249 248 247 245 244 243 243 243 245 248 249 249 249 249 249
301 302 303 301 300 298 297 297 296 294 291 289 286 284 281 278 276 273 269 269 266 262 261 262 263 260 255 251 249 248 248 248 246 245 242 241 242 245 248 250 251 251 251 250
300 301 299 299 298 296 296 295 293 291 289 288 286 286 283 281 278 276 273 272 270 266 263 261 261 258 253 251 249 248 248 247 247 246 244 242 243 245 247 249 250 250 250 250
298 299 299 299 297 295 295 294 291 289 288 288 284 283 283 281 279 278 277 275 271 266 264 262 259 255 253 251 249 249 248 248 247 246 245 244 245 246 247 249 250 251 250 250
298 298 298 299 296 295 295 292 291 290 289 287 284 282 281 281 280 280 280 280 275 269 265 262 259 257 256 253 250 248 247 247 247 246 246 246 246 246 246 249 251 250 250 252
297 296 297 298 296 294 293 290 289 289 288 288 287 285 283 281 281 282 283 281 279 274 268 265 261 259 256 254 252 250 249 249 248 247 246 246 246 246 247 249 251 251 251 253
296 296 296 296 295 293 291 289 288 289 289 289 289 287 285 282 281 282 283 282 280 277 271 267 264 261 259 256 253 250 248 248 248 247 247 248 247 247 247 248 249 249 250 252
296 295 296 296 293 291 289 288 286 288 291 291 289 287 285 283 283 284 285 284 282 279 272 268 265 262 261 259 255 252 250 248 247 245 244 245 245 245 246 247 246 247 247 250
294 295 296 295 291 289 288 287 286 288 290 291 290 288 286 284 284 285 285 284 282 280 275 271 266 264 263 259 255 253 251 248 247 245 244 245 245 245 246 246 245 246 246 248
295 293 294 294 291 288 287 286 287 287 287 289 288 288 287 286 286 286 286 285 282 278 277 273 269 266 263 259 255 253 251 249 247 246 245 246 247 246 245 245 245 246 246 247
295 294 293 294 291 289 286 285 287 287 286 285 285 286 286 287 288 288 287 285 281 278 278 276 272 268 264 260 256 253 252 251 249 248 247 247 247 246 245 245 244 244 246 246
294 292 292 294 292 289 287 286 286 286 284 285 285 285 285 286 288 289 289 286 281 279 277 276 273 270 266 263 260 256 254 252 249 248 248 248 248 247 246 245 244 243 244 245
292 291 293 294 291 288 287 286 287 286 285 285 286 286 285 286 289 290 290 286 281 277 275 274 273 272 269 265 260 257 255 253 250 249 249 249 249 247 244 243 243 242 243 244
291 291 293 294 292 290 287 287 287 287 286 285 286 286 286 286 289 290 289 285 281 278 274 272 271 271 269 266 264 261 257 254 252 251 250 249 248 246 244 242 241 241 241 241
291 290 292 293 292 290 289 288 287 288 287 286 287 288 287 287 288 291 290 287 283 279 275 272 269 267 265 264 263 262 260 258 254 252 250 249 247 245 243 242 241 240 239 240
293 292 292 292 291 290 290 290 289 289 288 287 288 290 290 289 290 292 291 288 285 280 275 272 269 265 262 261 261 261 260 258 254 249 247 245 242 241 240 240 238 237 237 239
293 293 293 292 292 291 291 291 291 291 290 288 289 291 292 292 292 293 292 289 285 282 278 273 269 264 261 261 261 261 259 256 252 250 246 242 240 239 239 237 236 236 237 238
293 293 293 292 292 293 292 292 291 291 292 290 291 292 293 293 294 295 295 291 287 283 279 274 268 263 261 261 261 261 258 254 252 250 246 242 240 239 236 235 236 237 237 236
293 293 293 291 291 292 292 292 292 292 292 290 290 291 292 292 294 295 294 292 288 284 280 275 269 264 261 260 259 258 255 252 251 250 247 243 241 240 238 236 236 236 236 235
291 291 290 289 289 290 291 291 292 293 293 289 288 289 290 292 295 295 294 292 289 285 281 276 270 265 263 259 257 255 253 251 250 250 247 244 243 240 238 237 236 235 234 233
291 290 290 288 288 289 291 291 290 291 292 290 287 287 289 292 293 294 293 291 289 286 282 277 272 268 264 260 258 255 252 252 251 251 249 245 241 238 235 233 231 228 228 228
Height
5586 5584 5581 5580 5579 5578 5576 5575 5574 5574 5573 5572 5570 5569 5568 5568 5569 5569 5570 5570 5571 5572 5573 5575 5576 5578 5579 5581 5583 5586 5589 5593 5597 5601 5605 5608 5612 5616 5619 5623 5626 5629 5632 5635
5582 5579 5577 5576 5575 5573 5571 5570 5568 5568 5568 5566 5564 5563 5563 5563 5563 5563 5564 5564 5565 5566 5567 5568 5570 5571 5572 5573 5575 5578 5581 5585 5588 5592 5596 5600 5603 5607 5610 5613 5617 5620 5623 5626
5576 5574 5572 5572 5570 5568 5566 5565 5563 5562 5563 5560 5559 5558 5557 5557 5557 5557 5558 5559 5559 5560 5561 5562 5563 5564 5565 5566 5568 5570 5573 5576 5580 5583 5587 5591 5595 5599 5602 5605 5608 5611 5614 5617
5570 5569 5567 5569 5565 5562 5561 5559 5557 5556 5555 5554 5553 5552 5551 5551 5551 5551 5552 5552 5553 5553 5554 5555 5557 5558 5558 5559 5561 5563 5566 5569 5572 5576 5579 5583 5587 5590 5593 5596 5599 5602 5605 5608
5565 5562 5561 5562 5559 5557 5555 5554 5552 5550 5549 5548 5547 5546 5546 5545 5545 5545 5545 5545 5546 5547 5548 5549 5550 5551 5552 5553 5555 5557 5559 5562 5565 5568 5572 5575 5579 5582 5585 5588 5591 5593 5596 5599
5559 5557 5556 5557 5554 5551 5550 5548 5546 5544 5542 5541 5540 5540 5541 5539 5538 5538 5538 5539 5539 5540 5541 5542 5543 5544 5545 5546 5548 5550 5553 5555 5558 5561 5564 5567 5570 5573 5576 5579 5582 5585 5587 5590
5554 5551 5551 5550 5548 5546 5545 5544 5540 5538 5536 5535 5534 5534 5534 5533 5532 5532 5532 5532 5532 5533 5534 5535 5536 5537 5538 5539 5541 5543 5545 5548 5550 5553 5557 5560 5563 5566 5568 5571 5574 5576 5580 5582
5549 5547 5548 5544 5542 5541 5539 5536 5534 5532 5531 5529 5529 5528 5527 5526 5526 5526 5525 5525 5526 5526 5527 5528 5529 5529 5531 5532 5534 5536 5538 5541 5543 5546 5549 5552 5555 5558 5561 5563 5566 5568 5571 5574
5546 5545 5541 5538 5536 5534 5532 5530 5528 5527 5526 5524 5523 5522 5521 5521 5520 5520 5519 5519 5519 5519 5520 5521 5521 5522 5524 5525 5527 5529 5531 5534 5536 5538 5541 5544 5547 5550 5553 5555 5558 5560 5563 5565
5539 5538 5535 5533 5530 5528 5526 5524 5523 5521 5520 5519 5517 5517 5516 5515 5514 5514 5513 5513 5513 5513 5513 5514 5514 5515 5516 5518 5519 5522 5524 5526 5529 5531 5534 5536 5539 5542 5545 5547 5550 5552 5554 5557
5533 5532 5530 5527 5525 5523 5521 5519 5517 5516 5514 5513 5512 5511 5510 5509 5509 5508 5508 5507 5507 5506 5507 5507 5508 5508 5510 5511 5513 5515 5517 5519 5522 5524 5526 5529 5531 5534 5537 5539 5541 5544 5546 5549
5528 5526 5524 5522 5519 5517 5515 5513 5512 5510 5509 5508 5506 5505 5505 5504 5503 5503 5502 5502 5501 5500 5500 5501 5501 5502 5503 5504 5506 5508 5510 5512 5514 5516 5518 5521 5523 5526 5528 5531 5533 5536 5538 5540
5521 5519 5517 5515 5513 5511 5509 5508 5506 5505 5504 5502 5501 5500 5499 5498 5498 5497 5496 5496 5495 5494 5494 5494 5494 5495 5496 5497 5498 5500 5502 5504 5506 5508 5511 5513 5515 5518 5521 5523 5525 5528 5530 5532
5514 5512 5511 5509 5507 5505 5503 5502 5501 5500 5498 5497 5496 5495 5494 5493 5492 5491 5490 5490 5489 5488 5488 5488 5488 5489 5489 5490 5491 5493 5494 5496 5498 5500 5503 5505 5507 5510 5513 5515 5518 5520 5522 5525
5508 5506 5504 5502 5501 5499 5498 5497 5496 5495 5493 5492 5491 5489 5488 5487 5487 5486 5485 5484 5483 5482 5482 5482 5482 5482 5482 5483 5484 5486 5487 5489 5491 5493 5495 5497 5500 5502 5505 5507 5510 5512 5515 5517
5502 5500 5498 5497 5495 5494 5493 5492 5491 5489 5488 5487 5485 5484 5483 5482 5481 5480 5479 5478 5477 5476 5476 5475 5475 5475 5476 5476 5477 5479 5480 5482 5484 5486 5488 5490 5492 5494 5497 5499 5502 5504 5507 5509
5496 5494 5492 5491 5490 5488 5487 5486 5485 5484 5482 5481 5480 5479 5478 5477 5476 5474 5473 5472 5471 5470 5470 5469 5469 5469 5469 5470 5471 5472 5473 5475 5477 5478 5480 5482 5484 5486 5489 5491 5494 5497 5499 5501
5489 5488 5487 5485 5484 5482 5481 5480 5479 5478 5477 5475 5474 5473 5472 5471 5470 5469 5467 5466 5465 5465 5464 5463 5463 5463 5463 5464 5465 5466 5467 5468 5470 5471 5473 5475 5477 5479 5481 5484 5486 5489 5491 5494
5483 5482 5481 5479 5477 5476 5475 5474 5473 5472 5471 5469 5469 5468 5466 5465 5464 5463 5461 5460 5459 5459 5458 5458 5458 5457 5457 5458 5458 5459 5460 5461 5463 5465 5466 5468 5470 5472 5474 5476 5479 5481 5484 5487
5477 5476 5475 5473 5471 5470 5469 5468 5467 5466 5465 5464 5463 5462 5460 5459 5458 5457 5455 5454 5453 5452 5452 5452 5452 5452 5452 5452 5452 5453 5454 5455 5456 5458 5459 5461 5463 5464 5467 5469 5472 5475 5478 5480
5471 5470 5468 5467 5465 5464 5463 5462 5461 5460 5459 5458 5457 5456 5454 5453 5452 5450 5449 5448 5446 5445 5445 5445 5445 5445 5446 5446 5447 5447 5448 5449 5450 5451 5453 5454 5456 5458 5460 5463 5465 5468 5471 5474
5465 5463 5462 5461 5459 5458 5457 5456 5455 5454 5453 5451 5450 5449 5448 5447 5445 5444 5442 5441 5440 5439 5439 5439 5439 5439 5440 5440 5441 5442 5442 5443 5444 5445 5447 5449 5450 5453 5455 5457 5459 5462 5465 5468
5459 5457 5456 5455 5453 5452 5451 5450 5449 5448 5446 5445 5444 5443 5441 5440 5439 5437 5436 5435 5433 5433 5433 5432 5433 5433 5434 5434 5435 5436 5436 5437 5438 5440 5441 5443 5445 5447 5449 5452 5454 5457 5459 5462
5453 5452 5450 5449 5448 5446 5445 5444 5443 5441 5440 5439 5438 5437 5435 5434 5433 5431 5430 5429 5428 5427 5427 5427 5427 5427 5428 5428 5429 5430 5431 5432 5433 5434 5436 5438 5440 5442 5444 5446 5449 5451 5454 5456
5447 5446 5444 5443 5442 5441 5440 5438 5437 5436 5434 5433 5432 5431 5430 5428 5427 5426 5424 5423 5422 5422 5421 5421 5421 5422 5422 5423 5423 5424 5425 5426 5428 5429 5430 5432 5434 5436 5438 5440 5443 5446 5448 5451
5441 5440 5438 5437 5436 5435 5434 5433 5432 5430 5429 5428 5427 5425 5424 5423 5422 5421 5419 5418 5417 5417 5416 5416 5416 5416 5417 5417 5418 5419 5420 5421 5422 5423 5425 5426 5428 5430 5432 5435 5437 5440 5442 5445
5435 5434 5432 5431 5430 5429 5428 5427 5426 5425 5423 5422 5421 5420 5419 5418 5417 5416 5415 5414 5413 5412 5412 5412 5411 5411 5412 5412 5413 5413 5414 5415 5417 5418 5419 5421 5422 5424 5427 5429 5432 5434 5437 5440